����������;��������(kVARh)
2017-10-16 00:00;9,15
2017-10-16 00:15;10,65
2017-10-16 00:30;12,9
2017-10-16 00:45;10,4
2017-10-16 01:00;11,8
2017-10-16 01:15;10,3
2017-10-16 01:30;12,25
2017-10-16 01:45;11,85
2017-10-16 02:00;12,8
2017-10-16 02:15;14,1
2017-10-16 02:30;12,75
2017-10-16 02:45;14,5
2017-10-16 03:00;13,45
2017-10-16 03:15;13,4
2017-10-16 03:30;13
2017-10-16 03:45;13,2
2017-10-16 04:00;15,05
2017-10-16 04:15;11,8
2017-10-16 04:30;12,45
2017-10-16 04:45;11,6
2017-10-16 05:00;11,05
2017-10-16 05:15;13,1
2017-10-16 05:30;10,15
2017-10-16 05:45;11,85
2017-10-16 06:00;11
2017-10-16 06:15;11,45
2017-10-16 06:30;11,1
2017-10-16 06:45;9,45
2017-10-16 07:00;9,55
2017-10-16 07:15;6,7
2017-10-16 07:30;9,05
2017-10-16 07:45;11,6
2017-10-16 08:00;14,25
2017-10-16 08:15;13,2
2017-10-16 08:30;21,15
2017-10-16 08:45;31,3
2017-10-16 09:00;38,25
2017-10-16 09:15;38,75
2017-10-16 09:30;39,4
2017-10-16 09:45;39,95
2017-10-16 10:00;44,1
2017-10-16 10:15;42,3
2017-10-16 10:30;41,35
2017-10-16 10:45;41
2017-10-16 11:00;42,4
2017-10-16 11:15;45,85
2017-10-16 11:30;43,1
2017-10-16 11:45;45,65
2017-10-16 12:00;47,85
2017-10-16 12:15;49,9
2017-10-16 12:30;47,1
2017-10-16 12:45;40,65
2017-10-16 13:00;44,15
2017-10-16 13:15;48,25
2017-10-16 13:30;47,15
2017-10-16 13:45;47,65
2017-10-16 14:00;44,65
2017-10-16 14:15;46,4
2017-10-16 14:30;46,4
2017-10-16 14:45;47,7
2017-10-16 15:00;50,9
2017-10-16 15:15;46,6
2017-10-16 15:30;38,3
2017-10-16 15:45;36,55
2017-10-16 16:00;40,65
2017-10-16 16:15;39,6
2017-10-16 16:30;39,4
2017-10-16 16:45;38,4
2017-10-16 17:00;32,8
2017-10-16 17:15;36,2
2017-10-16 17:30;33,45
2017-10-16 17:45;30,15
2017-10-16 18:00;27,2
2017-10-16 18:15;24,4
2017-10-16 18:30;25,45
2017-10-16 18:45;20,55
2017-10-16 19:00;23
2017-10-16 19:15;15,3
2017-10-16 19:30;15,9
2017-10-16 19:45;20,75
2017-10-16 20:00;19,65
2017-10-16 20:15;18,05
2017-10-16 20:30;16,3
2017-10-16 20:45;17,2
2017-10-16 21:00;16,2
2017-10-16 21:15;20,25
2017-10-16 21:30;19,3
2017-10-16 21:45;20
2017-10-16 22:00;15,9
2017-10-16 22:15;16,05
2017-10-16 22:30;12,6
2017-10-16 22:45;10,8
2017-10-16 23:00;13,9
2017-10-16 23:15;11,95
2017-10-16 23:30;11,15
2017-10-16 23:45;11,55
2017-10-17 00:00;7,5
2017-10-17 00:15;12,4
2017-10-17 00:30;13,45
2017-10-17 00:45;14,25
2017-10-17 01:00;14
2017-10-17 01:15;13,9
2017-10-17 01:30;15,8
2017-10-17 01:45;14,15
2017-10-17 02:00;13
2017-10-17 02:15;13,65
2017-10-17 02:30;13
2017-10-17 02:45;13,1
2017-10-17 03:00;12,7
2017-10-17 03:15;12,7
2017-10-17 03:30;13,5
2017-10-17 03:45;13,5
2017-10-17 04:00;14,05
2017-10-17 04:15;12,15
2017-10-17 04:30;13,9
2017-10-17 04:45;13,25
2017-10-17 05:00;12,7
2017-10-17 05:15;13,5
2017-10-17 05:30;12,4
2017-10-17 05:45;11,85
2017-10-17 06:00;13,2
2017-10-17 06:15;11
2017-10-17 06:30;9,9
2017-10-17 06:45;9,05
2017-10-17 07:00;9,9
2017-10-17 07:15;8,25
2017-10-17 07:30;12,85
2017-10-17 07:45;15,8
2017-10-17 08:00;14,2
2017-10-17 08:15;15,05
2017-10-17 08:30;15,75
2017-10-17 08:45;25,6
2017-10-17 09:00;29,15
2017-10-17 09:15;25,7
2017-10-17 09:30;34,35
2017-10-17 09:45;35,4
2017-10-17 10:00;36,2
2017-10-17 10:15;38,15
2017-10-17 10:30;39,9
2017-10-17 10:45;42,7
2017-10-17 11:00;42,1
2017-10-17 11:15;45,6
2017-10-17 11:30;44,55
2017-10-17 11:45;45,05
2017-10-17 12:00;45,65
2017-10-17 12:15;47,85
2017-10-17 12:30;44,3
2017-10-17 12:45;47,7
2017-10-17 13:00;44,4
2017-10-17 13:15;44
2017-10-17 13:30;45,4
2017-10-17 13:45;47,7
2017-10-17 14:00;47,45
2017-10-17 14:15;48,45
2017-10-17 14:30;50,5
2017-10-17 14:45;46,5
2017-10-17 15:00;50
2017-10-17 15:15;47,8
2017-10-17 15:30;47,95
2017-10-17 15:45;42,7
2017-10-17 16:00;42,1
2017-10-17 16:15;47,25
2017-10-17 16:30;46,6
2017-10-17 16:45;43,15
2017-10-17 17:00;38,35
2017-10-17 17:15;36,7
2017-10-17 17:30;38,05
2017-10-17 17:45;32,1
2017-10-17 18:00;30,3
2017-10-17 18:15;29,7
2017-10-17 18:30;28,4
2017-10-17 18:45;24,65
2017-10-17 19:00;24,6
2017-10-17 19:15;19,8
2017-10-17 19:30;17,35
2017-10-17 19:45;16,85
2017-10-17 20:00;17,05
2017-10-17 20:15;13,5
2017-10-17 20:30;13,1
2017-10-17 20:45;12,35
2017-10-17 21:00;10,3
2017-10-17 21:15;11,6
2017-10-17 21:30;12,95
2017-10-17 21:45;15,5
2017-10-17 22:00;13,25
2017-10-17 22:15;15,4
2017-10-17 22:30;16,5
2017-10-17 22:45;8,8
2017-10-17 23:00;11,3
2017-10-17 23:15;5
2017-10-17 23:30;1,55
2017-10-17 23:45;0,55
2017-10-18 00:00;1,1
2017-10-18 00:15;2,35
2017-10-18 00:30;0,75
2017-10-18 00:45;3,15
2017-10-18 01:00;2,45
2017-10-18 01:15;3,4
2017-10-18 01:30;1,7
2017-10-18 01:45;3,7
2017-10-18 02:00;3,3
2017-10-18 02:15;5,7
2017-10-18 02:30;5,65
2017-10-18 02:45;4,2
2017-10-18 03:00;5,75
2017-10-18 03:15;4,35
2017-10-18 03:30;5,5
2017-10-18 03:45;5,1
2017-10-18 04:00;5,25
2017-10-18 04:15;5,55
2017-10-18 04:30;5,2
2017-10-18 04:45;4,55
2017-10-18 05:00;3,8
2017-10-18 05:15;4,1
2017-10-18 05:30;4,8
2017-10-18 05:45;3,4
2017-10-18 06:00;4,2
2017-10-18 06:15;7,7
2017-10-18 06:30;12,2
2017-10-18 06:45;11,55
2017-10-18 07:00;10,55
2017-10-18 07:15;7,8
2017-10-18 07:30;11,3
2017-10-18 07:45;16,1
2017-10-18 08:00;14,45
2017-10-18 08:15;15,9
2017-10-18 08:30;17,15
2017-10-18 08:45;27,7
2017-10-18 09:00;32
2017-10-18 09:15;34,8
2017-10-18 09:30;37,45
2017-10-18 09:45;36,25
2017-10-18 10:00;39,4
2017-10-18 10:15;36,35
2017-10-18 10:30;41
2017-10-18 10:45;41,95
2017-10-18 11:00;45,95
2017-10-18 11:15;48,85
2017-10-18 11:30;45,3
2017-10-18 11:45;46,2
2017-10-18 12:00;47,2
2017-10-18 12:15;50,4
2017-10-18 12:30;47,8
2017-10-18 12:45;45,3
2017-10-18 13:00;44,85
2017-10-18 13:15;46,75
2017-10-18 13:30;47,05
2017-10-18 13:45;45,85
2017-10-18 14:00;43,65
2017-10-18 14:15;44
2017-10-18 14:30;46,05
2017-10-18 14:45;47,15
2017-10-18 15:00;40,2
2017-10-18 15:15;36,35
2017-10-18 15:30;36,4
2017-10-18 15:45;34,9
2017-10-18 16:00;36,4
2017-10-18 16:15;32,5
2017-10-18 16:30;32,6
2017-10-18 16:45;32,2
2017-10-18 17:00;32,45
2017-10-18 17:15;29,3
2017-10-18 17:30;29
2017-10-18 17:45;31,5
2017-10-18 18:00;32,15
2017-10-18 18:15;30,05
2017-10-18 18:30;27,25
2017-10-18 18:45;23,55
2017-10-18 19:00;25,45
2017-10-18 19:15;23,05
2017-10-18 19:30;20,7
2017-10-18 19:45;13,95
2017-10-18 20:00;12,4
2017-10-18 20:15;12,4
2017-10-18 20:30;10,7
2017-10-18 20:45;9,1
2017-10-18 21:00;13,95
2017-10-18 21:15;16,1
2017-10-18 21:30;16,45
2017-10-18 21:45;13,85
2017-10-18 22:00;14,35
2017-10-18 22:15;13,9
2017-10-18 22:30;14,9
2017-10-18 22:45;13,7
2017-10-18 23:00;15,8
2017-10-18 23:15;14,5
2017-10-18 23:30;15
2017-10-18 23:45;10,2
2017-10-19 00:00;7,05
2017-10-19 00:15;5,85
2017-10-19 00:30;6
2017-10-19 00:45;8,2
2017-10-19 01:00;7,2
2017-10-19 01:15;8,95
2017-10-19 01:30;9
2017-10-19 01:45;10,15
2017-10-19 02:00;9,8
2017-10-19 02:15;9,7
2017-10-19 02:30;11,65
2017-10-19 02:45;10,5
2017-10-19 03:00;13,15
2017-10-19 03:15;11,2
2017-10-19 03:30;11,3
2017-10-19 03:45;10,9
2017-10-19 04:00;10,95
2017-10-19 04:15;11,45
2017-10-19 04:30;10,2
2017-10-19 04:45;11,5
2017-10-19 05:00;10,75
2017-10-19 05:15;12,15
2017-10-19 05:30;9,9
2017-10-19 05:45;11,15
2017-10-19 06:00;10,05
2017-10-19 06:15;7,85
2017-10-19 06:30;10,45
2017-10-19 06:45;15,2
2017-10-19 07:00;16,2
2017-10-19 07:15;13,8
2017-10-19 07:30;16,4
2017-10-19 07:45;18,1
2017-10-19 08:00;20,6
2017-10-19 08:15;21,25
2017-10-19 08:30;22,45
2017-10-19 08:45;31,6
2017-10-19 09:00;39,4
2017-10-19 09:15;41,25
2017-10-19 09:30;41
2017-10-19 09:45;39,85
2017-10-19 10:00;39,5
2017-10-19 10:15;32,25
2017-10-19 10:30;32,05
2017-10-19 10:45;34
2017-10-19 11:00;39,25
2017-10-19 11:15;38,55
2017-10-19 11:30;39,5
2017-10-19 11:45;40,65
2017-10-19 12:00;40,1
2017-10-19 12:15;44,45
2017-10-19 12:30;45,25
2017-10-19 12:45;45,6
2017-10-19 13:00;42,75
2017-10-19 13:15;42,8
2017-10-19 13:30;44,85
2017-10-19 13:45;45,25
2017-10-19 14:00;45,35
2017-10-19 14:15;42,15
2017-10-19 14:30;45,1
2017-10-19 14:45;45,25
2017-10-19 15:00;45,95
2017-10-19 15:15;42,75
2017-10-19 15:30;36,25
2017-10-19 15:45;40,65
2017-10-19 16:00;39,95
2017-10-19 16:15;44,75
2017-10-19 16:30;39,65
2017-10-19 16:45;35,9
2017-10-19 17:00;34,3
2017-10-19 17:15;34,95
2017-10-19 17:30;38,05
2017-10-19 17:45;33
2017-10-19 18:00;32,1
2017-10-19 18:15;27,65
2017-10-19 18:30;23,65
2017-10-19 18:45;24,55
2017-10-19 19:00;23,95
2017-10-19 19:15;20,65
2017-10-19 19:30;15,85
2017-10-19 19:45;13,8
2017-10-19 20:00;15,05
2017-10-19 20:15;12,25
2017-10-19 20:30;12,55
2017-10-19 20:45;10,75
2017-10-19 21:00;11,6
2017-10-19 21:15;12
2017-10-19 21:30;6,9
2017-10-19 21:45;7,2
2017-10-19 22:00;4,1
2017-10-19 22:15;6,2
2017-10-19 22:30;5,6
2017-10-19 22:45;4,8
2017-10-19 23:00;7
2017-10-19 23:15;3,4
2017-10-19 23:30;0,65
2017-10-19 23:45;0,65
2017-10-20 00:00;0,45
2017-10-20 00:15;0,55
2017-10-20 00:30;0,5
2017-10-20 00:45;0,4
2017-10-20 01:00;0,05
2017-10-20 01:15;0,55
2017-10-20 01:30;1,6
2017-10-20 01:45;1,1
2017-10-20 02:00;0,9
2017-10-20 02:15;1,1
2017-10-20 02:30;1,1
2017-10-20 02:45;0,5
2017-10-20 03:00;0,4
2017-10-20 03:15;1
2017-10-20 03:30;0,8
2017-10-20 03:45;1,6
2017-10-20 04:00;0,8
2017-10-20 04:15;0,6
2017-10-20 04:30;1,25
2017-10-20 04:45;0,45
2017-10-20 05:00;0,6
2017-10-20 05:15;1,1
2017-10-20 05:30;1,65
2017-10-20 05:45;0,4
2017-10-20 06:00;1
2017-10-20 06:15;0,35
2017-10-20 06:30;1,7
2017-10-20 06:45;1,15
2017-10-20 07:00;0,6
2017-10-20 07:15;0,85
2017-10-20 07:30;0,7
2017-10-20 07:45;6
2017-10-20 08:00;4,9
2017-10-20 08:15;4,85
2017-10-20 08:30;5,55
2017-10-20 08:45;16,05
2017-10-20 09:00;19,25
2017-10-20 09:15;23,6
2017-10-20 09:30;25,75
2017-10-20 09:45;26,65
2017-10-20 10:00;26,45
2017-10-20 10:15;30,75
2017-10-20 10:30;30,75
2017-10-20 10:45;33,25
2017-10-20 11:00;32,2
2017-10-20 11:15;34,25
2017-10-20 11:30;36,25
2017-10-20 11:45;35,45
2017-10-20 12:00;34,55
2017-10-20 12:15;37,1
2017-10-20 12:30;37,75
2017-10-20 12:45;36,8
2017-10-20 13:00;36,4
2017-10-20 13:15;38,35
2017-10-20 13:30;36,8
2017-10-20 13:45;34,15
2017-10-20 14:00;31,7
2017-10-20 14:15;32,7
2017-10-20 14:30;35,45
2017-10-20 14:45;27,5
2017-10-20 15:00;27,2
2017-10-20 15:15;24,85
2017-10-20 15:30;24,55
2017-10-20 15:45;26,85
2017-10-20 16:00;23,75
2017-10-20 16:15;26,3
2017-10-20 16:30;24,2
2017-10-20 16:45;22,9
2017-10-20 17:00;19,95
2017-10-20 17:15;17,8
2017-10-20 17:30;20,25
2017-10-20 17:45;16,75
2017-10-20 18:00;15,75
2017-10-20 18:15;14,25
2017-10-20 18:30;12,75
2017-10-20 18:45;12,4
2017-10-20 19:00;11,35
2017-10-20 19:15;10,65
2017-10-20 19:30;7,15
2017-10-20 19:45;6,7
2017-10-20 20:00;3,75
2017-10-20 20:15;3,45
2017-10-20 20:30;5,3
2017-10-20 20:45;4,25
2017-10-20 21:00;3,5
2017-10-20 21:15;4,7
2017-10-20 21:30;6,9
2017-10-20 21:45;4
2017-10-20 22:00;1,3
2017-10-20 22:15;1,55
2017-10-20 22:30;0,6
2017-10-20 22:45;0,9
2017-10-20 23:00;1,25
2017-10-20 23:15;1,6
2017-10-20 23:30;0,95
2017-10-20 23:45;0,75
2017-10-21 00:00;1,05
2017-10-21 00:15;3,15
2017-10-21 00:30;1,55
2017-10-21 00:45;3,6
2017-10-21 01:00;9,65
2017-10-21 01:15;9,75
2017-10-21 01:30;11,35
2017-10-21 01:45;7,4
2017-10-21 02:00;5,8
2017-10-21 02:15;7,7
2017-10-21 02:30;6,25
2017-10-21 02:45;7,85
2017-10-21 03:00;6,9
2017-10-21 03:15;6,9
2017-10-21 03:30;8,55
2017-10-21 03:45;7,15
2017-10-21 04:00;6,75
2017-10-21 04:15;5,85
2017-10-21 04:30;4,9
2017-10-21 04:45;5
2017-10-21 05:00;5,85
2017-10-21 05:15;5,15
2017-10-21 05:30;5,3
2017-10-21 05:45;4,15
2017-10-21 06:00;4,4
2017-10-21 06:15;5,05
2017-10-21 06:30;4,8
2017-10-21 06:45;5,35
2017-10-21 07:00;5,25
2017-10-21 07:15;5,1
2017-10-21 07:30;5,15
2017-10-21 07:45;4,9
2017-10-21 08:00;5,25
2017-10-21 08:15;9,65
2017-10-21 08:30;7,8
2017-10-21 08:45;7,15
2017-10-21 09:00;6,45
2017-10-21 09:15;8,35
2017-10-21 09:30;13,25
2017-10-21 09:45;10,85
2017-10-21 10:00;10,35
2017-10-21 10:15;8,95
2017-10-21 10:30;9,95
2017-10-21 10:45;9,15
2017-10-21 11:00;9,45
2017-10-21 11:15;8,75
2017-10-21 11:30;8,5
2017-10-21 11:45;10
2017-10-21 12:00;6,1
2017-10-21 12:15;8,4
2017-10-21 12:30;8,35
2017-10-21 12:45;7,65
2017-10-21 13:00;6,1
2017-10-21 13:15;6,4
2017-10-21 13:30;5,85
2017-10-21 13:45;6,35
2017-10-21 14:00;8,6
2017-10-21 14:15;8,85
2017-10-21 14:30;10,15
2017-10-21 14:45;9,95
2017-10-21 15:00;10,65
2017-10-21 15:15;12,7
2017-10-21 15:30;11,25
2017-10-21 15:45;13,8
2017-10-21 16:00;11,85
2017-10-21 16:15;13,2
2017-10-21 16:30;13,05
2017-10-21 16:45;13,1
2017-10-21 17:00;11,95
2017-10-21 17:15;14,1
2017-10-21 17:30;14,1
2017-10-21 17:45;13,15
2017-10-21 18:00;14,1
2017-10-21 18:15;11,4
2017-10-21 18:30;10,95
2017-10-21 18:45;13,45
2017-10-21 19:00;13,3
2017-10-21 19:15;12,7
2017-10-21 19:30;14,35
2017-10-21 19:45;14,95
2017-10-21 20:00;13,5
2017-10-21 20:15;13,55
2017-10-21 20:30;13,9
2017-10-21 20:45;12,1
2017-10-21 21:00;13,3
2017-10-21 21:15;12,9
2017-10-21 21:30;12,75
2017-10-21 21:45;12,85
2017-10-21 22:00;11,65
2017-10-21 22:15;13,05
2017-10-21 22:30;14,15
2017-10-21 22:45;12,35
2017-10-21 23:00;13,9
2017-10-21 23:15;11,2
2017-10-21 23:30;11,7
2017-10-21 23:45;12,2
2017-10-22 00:00;10
2017-10-22 00:15;13,65
2017-10-22 00:30;6,8
2017-10-22 00:45;6,3
2017-10-22 01:00;6,55
2017-10-22 01:15;2,3
2017-10-22 01:30;3,75
2017-10-22 01:45;2,35
2017-10-22 02:00;3,15
2017-10-22 02:15;4,3
2017-10-22 02:30;3,95
2017-10-22 02:45;5,35
2017-10-22 03:00;5,15
2017-10-22 03:15;4,2
2017-10-22 03:30;5,35
2017-10-22 03:45;5,15
2017-10-22 04:00;6,1
2017-10-22 04:15;4,9
2017-10-22 04:30;5,2
2017-10-22 04:45;6
2017-10-22 05:00;4,85
2017-10-22 05:15;6,4
2017-10-22 05:30;5,9
2017-10-22 05:45;4,85
2017-10-22 06:00;4,9
2017-10-22 06:15;3,95
2017-10-22 06:30;4,85
2017-10-22 06:45;4,7
2017-10-22 07:00;5,4
2017-10-22 07:15;7,45
2017-10-22 07:30;7,45
2017-10-22 07:45;7
2017-10-22 08:00;8,05
2017-10-22 08:15;6,25
2017-10-22 08:30;3,95
2017-10-22 08:45;5,55
2017-10-22 09:00;6
2017-10-22 09:15;7,25
2017-10-22 09:30;9,6
2017-10-22 09:45;9,95
2017-10-22 10:00;11
2017-10-22 10:15;10,3
2017-10-22 10:30;10,6
2017-10-22 10:45;10,95
2017-10-22 11:00;9,95
2017-10-22 11:15;10,4
2017-10-22 11:30;8,9
2017-10-22 11:45;9,35
2017-10-22 12:00;8,7
2017-10-22 12:15;5,9
2017-10-22 12:30;6,95
2017-10-22 12:45;5,45
2017-10-22 13:00;7,85
2017-10-22 13:15;8,1
2017-10-22 13:30;8,15
2017-10-22 13:45;7,65
2017-10-22 14:00;6,9
2017-10-22 14:15;8,05
2017-10-22 14:30;7,4
2017-10-22 14:45;9,25
2017-10-22 15:00;9,2
2017-10-22 15:15;11,3
2017-10-22 15:30;10,8
2017-10-22 15:45;13
2017-10-22 16:00;15,65
2017-10-22 16:15;14,45
2017-10-22 16:30;15,75
2017-10-22 16:45;15,9
2017-10-22 17:00;17,1
2017-10-22 17:15;12,25
2017-10-22 17:30;8,8
2017-10-22 17:45;9,65
2017-10-22 18:00;8,15
2017-10-22 18:15;8,7
2017-10-22 18:30;9,1
2017-10-22 18:45;10,25
2017-10-22 19:00;10,75
2017-10-22 19:15;10,95
2017-10-22 19:30;8,65
2017-10-22 19:45;7,8
2017-10-22 20:00;7,2
2017-10-22 20:15;8,3
2017-10-22 20:30;6,1
2017-10-22 20:45;4,75
2017-10-22 21:00;5,65
2017-10-22 21:15;4,15
2017-10-22 21:30;7,35
2017-10-22 21:45;5,15
2017-10-22 22:00;5
2017-10-22 22:15;5,55
2017-10-22 22:30;4,9
2017-10-22 22:45;5,7
2017-10-22 23:00;4,3
2017-10-22 23:15;3,7
2017-10-22 23:30;3,6
2017-10-22 23:45;3,9

